Wind_Speed
24 20 16 14 13 12 12 12 13 14 14 15 18 18 15 15 18 20 22 22 16 12 13 15 16 18 19 19 19 19 18 17 16 16 16 17 17 16 17 16 16 16 17 17 18 18 19 20 21 23 21 19 18 18 19 20 21 24 26 27 27 24 21 19 10 6 15 21 19 18 19 18 17 18 17 16 17 17 15 14 15 15 15 15 14
27 24 20 17 14 12 11 11 12 15 15 14 15 16 16 17 20 22 22 21 16 12 12 13 14 17 18 19 18 17 17 16 16 17 16 16 17 17 17 17 16 17 17 17 18 18 19 20 21 23 22 19 18 18 18 20 21 23 25 25 26 26 23 19 14 9 11 18 19 18 19 19 18 18 18 17 18 18 17 16 17 17 17 17 16
28 25 22 20 15 12 11 11 12 15 16 14 13 15 19 21 22 23 23 20 17 14 13 12 12 15 17 18 17 16 16 15 15 16 16 15 16 17 18 18 17 17 18 17 18 19 19 20 21 22 22 20 18 18 18 20 21 22 24 25 26 27 24 20 16 13 12 16 18 19 19 20 20 19 18 18 18 18 18 17 18 18 18 18 18
29 25 23 22 18 13 12 11 11 13 15 14 13 14 19 23 25 25 23 20 17 15 14 14 13 14 16 18 17 16 15 15 14 15 15 15 16 17 18 19 19 19 19 19 18 19 20 21 21 21 20 20 19 18 18 19 21 21 23 26 28 27 25 22 19 16 14 15 17 19 20 20 20 20 19 19 19 19 19 18 19 20 19 19 19
30 27 24 22 21 18 14 11 10 12 14 15 15 15 18 22 25 26 24 20 18 17 17 17 15 14 15 17 18 17 16 14 14 14 15 15 15 16 17 19 20 19 20 20 19 19 20 21 22 20 19 20 19 18 19 19 20 21 23 26 28 27 25 23 21 18 17 16 16 17 19 19 19 20 20 20 20 21 20 20 21 21 21 21 21
30 28 26 23 22 20 17 14 13 12 13 14 15 16 17 19 23 25 24 20 19 19 18 17 16 15 15 17 18 18 16 14 13 14 15 15 15 16 16 18 19 19 19 19 19 19 19 20 21 21 20 20 20 19 18 19 21 22 23 24 25 25 24 23 22 21 19 17 16 16 18 20 20 20 21 22 22 22 21 21 22 22 23 23 23
28 28 27 26 23 21 19 16 14 15 14 14 15 16 16 18 21 24 23 21 20 20 17 16 16 14 15 18 19 18 17 14 13 14 14 14 14 15 16 17 18 18 18 18 19 19 18 18 20 21 21 21 21 20 18 19 20 22 23 24 23 23 23 22 23 23 20 17 16 15 17 19 20 20 20 21 21 21 21 21 22 23 24 24 24
27 28 28 28 27 24 22 19 14 14 15 15 15 15 16 17 20 22 23 21 20 20 18 17 16 14 16 19 19 19 18 16 15 15 14 14 14 14 15 15 16 18 18 18 19 18 17 17 18 19 20 20 20 20 19 19 19 21 22 23 23 23 23 23 22 22 21 19 17 17 16 17 19 19 18 18 20 21 22 23 23 24 24 24 25
25 27 28 30 30 28 25 21 16 13 14 15 15 15 15 17 19 22 23 21 19 19 19 17 16 15 18 20 20 20 20 18 17 16 16 15 15 14 14 14 15 16 18 18 18 17 16 16 17 18 18 19 19 19 19 19 19 20 21 21 22 23 24 24 22 21 20 19 18 16 15 16 19 20 20 21 23 24 23 24 25 25 23 23 25
26 26 28 29 31 30 28 24 19 15 13 14 16 16 16 17 19 21 21 19 19 19 19 18 17 17 20 21 21 21 20 18 18 17 17 16 16 15 15 14 14 15 16 17 17 16 16 15 16 16 16 17 18 19 19 19 19 19 20 20 21 22 24 25 25 22 21 21 20 18 17 18 21 23 24 25 25 24 21 22 25 24 21 20 22
29 28 29 31 32 31 30 27 23 19 15 13 15 17 17 17 19 20 20 19 19 19 19 19 19 20 21 21 21 20 20 19 18 18 17 16 16 16 15 15 14 14 15 16 16 16 15 14 14 14 14 15 16 17 17 18 18 18 19 19 19 20 23 26 26 24 23 22 21 20 21 21 22 24 24 23 22 22 20 19 20 19 17 15 16
30 30 31 33 34 32 30 29 26 22 19 15 13 14 16 17 18 18 19 18 18 18 18 19 20 20 20 20 20 20 20 19 19 18 16 16 16 16 15 16 15 15 15 16 17 16 15 14 14 14 14 14 14 16 17 17 17 18 20 21 21 21 23 25 25 25 25 23 22 22 23 22 20 20 21 21 20 19 17 16 15 15 15 15 16
31 31 32 33 34 33 31 28 27 24 21 19 15 12 14 16 17 17 17 17 17 16 17 18 19 19 19 19 20 20 20 20 19 18 17 16 16 16 16 17 17 16 16 16 16 16 15 15 15 15 14 13 13 15 16 15 14 15 17 20 21 21 22 24 25 24 23 23 22 21 20 17 15 14 15 17 17 16 15 14 14 15 15 16 16
32 32 33 34 34 34 32 29 26 24 22 19 16 12 9 11 12 13 13 14 15 16 16 16 16 17 18 18 19 19 19 19 18 17 16 16 17 17 17 17 17 16 16 16 16 16 15 15 15 15 15 14 14 14 15 14 14 13 14 14 14 14 15 18 20 20 18 18 18 16 14 12 10 10 9 9 10 10 10 11 10 10 11 10 9
33 33 33 34 34 34 33 30 27 25 22 18 14 11 6 3 4 6 7 10 13 15 15 14 14 14 14 16 16 17 17 18 17 16 16 15 15 16 17 16 16 17 17 16 16 16 15 14 14 15 15 15 16 17 17 17 18 18 18 18 16 15 14 12 11 12 12 12 12 13 12 11 10 10 9 8 8 7 6 7 6 6 6 5 4
34 34 33 34 34 33 32 30 28 26 24 20 18 15 11 7 4 2 3 5 8 11 14 13 12 12 13 13 14 14 14 15 15 15 15 14 13 15 16 16 17 18 18 17 17 16 15 14 14 15 16 17 19 19 19 20 20 20 20 20 19 20 20 19 18 17 16 16 16 15 15 13 11 11 9 8 7 5 5 5 4 3 3 3 4
33 33 33 33 33 32 31 30 28 27 25 23 21 19 15 13 11 8 7 7 7 8 10 12 12 12 13 13 12 12 11 11 13 15 16 15 15 16 17 18 18 19 19 18 17 16 15 15 15 16 17 19 20 19 19 19 19 19 20 19 18 18 19 17 16 18 18 18 17 16 14 13 11 10 8 6 6 5 3 2 1 1 2 1 2
33 32 32 31 32 31 30 29 28 27 26 23 21 20 18 17 16 14 13 14 13 11 11 12 14 14 13 13 11 11 11 10 12 15 17 17 17 17 17 19 20 20 20 20 18 18 17 17 17 18 19 20 20 20 19 18 17 18 20 20 20 20 20 18 16 17 16 15 14 13 12 11 9 8 7 6 5 4 3 4 4 2 2 3 1
31 31 30 30 30 31 29 28 28 27 25 23 21 20 19 18 17 17 18 18 18 16 15 14 17 19 17 15 15 13 12 11 10 13 16 17 18 18 19 20 22 22 22 22 21 20 19 18 18 18 20 20 20 19 17 15 16 18 19 19 21 22 21 18 16 16 15 14 13 12 11 11 9 9 8 8 7 7 7 7 7 5 5 6 4
28 29 29 28 29 30 29 28 28 27 25 24 22 21 20 20 20 21 22 22 22 21 19 17 17 24 24 20 19 18 16 14 11 9 13 16 18 19 20 22 24 25 24 24 23 22 21 21 20 19 20 20 19 18 16 15 15 16 16 17 20 22 21 19 17 16 17 18 17 16 16 15 13 12 11 10 10 10 9 8 7 6 6 5 4
26 27 28 27 27 28 28 27 27 26 25 25 24 24 23 22 23 24 25 26 26 26 24 21 20 26 32 28 25 24 21 19 16 12 12 14 17 20 22 23 25 27 26 25 24 23 21 21 20 19 18 19 18 18 17 15 15 15 15 16 19 21 21 21 20 18 18 19 18 17 15 14 12 11 11 10 10 10 9 8 7 7 6 5 4
24 25 26 26 26 26 26 26 26 26 25 25 26 26 25 25 25 25 25 27 27 27 27 24 20 26 36 36 32 30 27 24 22 19 17 15 15 18 21 23 24 26 26 25 23 22 21 20 18 17 17 17 17 16 16 16 15 16 16 18 21 21 20 20 19 18 17 17 16 15 13 12 11 10 9 9 9 8 8 8 7 7 6 6 6
21 23 24 24 24 24 24 24 25 25 25 26 27 27 27 26 26 26 24 26 27 26 27 24 20 25 36 37 33 31 29 27 26 25 23 22 19 17 19 19 20 23 25 25 24 23 22 20 18 16 16 17 18 17 17 17 18 19 20 20 20 18 18 17 16 15 15 14 13 13 12 11 10 10 10 10 10 9 9 8 7 7 7 7 7
19 21 22 22 22 22 22 22 23 23 24 25 26 26 27 26 27 27 26 25 26 25 24 22 20 24 33 35 31 29 28 26 26 25 25 25 23 21 19 18 17 20 23 24 23 23 22 21 19 17 17 18 18 19 20 21 22 22 21 20 18 16 15 15 14 13 14 13 13 13 13 11 11 11 11 10 10 8 8 8 8 8 8 7 6
17 18 20 21 20 20 20 20 20 20 20 21 21 22 23 23 24 24 24 24 24 23 22 22 21 23 29 31 29 27 25 25 25 24 23 23 23 21 20 19 18 21 24 25 25 24 24 23 22 21 21 21 21 22 22 22 22 21 20 18 17 15 14 14 13 12 13 14 14 13 13 12 11 11 10 9 8 8 8 9 9 9 9 7 7
16 16 17 19 20 20 19 18 18 17 17 18 18 19 20 21 22 22 22 23 23 22 22 22 22 24 27 27 26 24 23 24 24 22 21 21 22 21 21 21 21 23 26 27 26 26 26 24 23 23 23 23 23 24 24 22 20 18 17 16 15 14 13 12 12 12 14 14 13 13 13 12 11 11 9 9 10 11 12 11 11 12 11 8 7
18 15 15 17 19 20 19 18 16 16 15 16 16 17 17 18 19 20 20 21 21 21 21 22 23 24 24 23 21 21 22 22 22 21 19 20 22 22 23 24 25 26 27 27 26 26 26 25 24 23 23 22 22 22 21 19 17 16 15 13 13 13 12 11 12 13 14 14 13 14 13 12 11 11 11 12 13 14 14 13 13 14 13 10 10
19 17 15 16 16 17 18 17 16 15 14 14 14 15 15 15 15 16 16 16 17 18 18 18 19 18 18 18 18 18 18 19 19 19 18 19 20 20 21 22 23 24 25 24 24 25 25 25 23 22 20 20 19 19 18 18 17 16 15 14 14 13 13 12 13 14 15 14 15 15 14 13 13 13 13 14 15 15 14 14 14 15 14 13 15
18 17 16 15 15 15 15 14 14 13 13 13 13 14 15 14 13 13 13 12 12 13 14 14 14 13 12 13 14 14 15 15 15 15 15 16 17 18 18 19 20 21 21 20 20 20 19 19 18 16 15 15 15 16 17 17 16 16 16 15 14 14 14 15 16 17 16 15 15 15 14 14 15 14 14 15 16 15 15 14 14 14 15 16 17
17 16 15 15 13 13 12 12 11 11 10 11 12 13 13 13 13 13 12 10 9 10 11 11 10 9 9 9 10 10 11 11 11 11 12 13 14 16 16 16 16 16 14 12 11 11 12 14 14 13 13 13 15 15 15 15 15 15 15 15 15 16 17 18 18 17 15 15 15 15 15 15 15 15 15 16 16 15 15 15 15 15 15 16 16
17 15 13 13 12 12 11 10 9 8 8 8 9 11 12 13 13 13 12 11 10 10 10 10 8 7 6 6 7 7 7 7 7 8 8 9 10 11 12 11 10 9 7 6 6 7 10 13 14 14 14 15 15 15 14 13 13 14 15 16 17 17 18 19 17 16 16 16 16 16 16 16 16 16 15 15 15 15 16 16 16 16 15 15 15
16 14 12 11 11 11 11 10 8 7 6 6 7 8 10 12 12 12 11 11 11 11 11 11 10 9 6 4 4 4 4 3 4 4 4 5 5 6 6 6 6 5 4 5 6 8 9 12 13 12 12 13 14 13 12 12 13 14 16 18 19 19 19 19 18 17 17 17 17 18 18 17 17 16 16 16 16 16 15 15 15 15 15 15 15
14 14 11 9 9 11 12 12 10 7 4 4 5 6 8 10 11 10 10 10 10 10 11 11 12 11 9 6 3 1 2 2 1 1 1 2 4 5 6 6 6 6 6 6 8 10 10 11 11 11 11 11 12 11 12 13 14 16 17 19 20 20 19 19 18 18 18 19 19 19 18 17 17 17 16 16 16 15 15 14 14 15 15 16 16
12 12 11 9 9 10 12 13 13 9 5 2 3 5 6 8 8 8 7 7 8 9 9 10 11 12 12 11 7 2 2 4 4 3 4 5 6 8 9 10 10 8 8 9 10 12 12 12 12 12 12 12 12 12 14 15 16 18 19 20 20 20 19 19 19 19 20 20 20 20 20 19 18 17 17 17 16 16 16 16 16 16 16 16 17
11 12 12 10 9 9 10 11 13 12 7 3 1 3 5 5 5 5 4 4 5 6 7 8 9 11 12 13 12 8 3 2 4 5 5 7 9 11 12 12 11 10 10 11 12 13 14 14 14 14 13 12 13 14 16 17 18 19 20 20 20 20 20 20 20 20 20 20 20 20 19 18 18 17 17 17 17 17 17 17 16 16 17 18 19
10 10 11 11 10 9 8 9 12 12 9 4 1 1 2 3 2 2 2 2 4 5 6 7 8 9 10 11 11 9 7 4 5 6 7 9 11 11 12 12 12 13 13 13 14 14 14 14 14 14 12 12 14 16 17 18 19 19 20 20 20 20 20 20 19 19 18 18 18 17 16 16 16 16 16 16 16 17 16 16 16 16 18 18 18
9 9 9 10 10 9 8 8 9 11 10 6 2 2 2 1 1 1 2 4 5 6 5 5 5 6 8 9 9 8 7 6 5 6 7 8 7 7 8 10 11 13 13 14 14 14 14 14 14 12 11 13 16 18 18 19 19 19 19 18 18 18 18 17 16 16 15 15 15 14 14 14 14 14 14 15 15 16 16 16 16 15 15 15 15
9 9 8 8 8 8 8 8 8 8 9 7 4 4 4 3 3 3 4 5 7 7 7 5 3 4 6 8 8 8 7 5 3 2 2 2 3 5 7 9 10 11 13 13 13 13 15 15 13 11 12 15 18 18 18 18 17 16 16 15 15 15 15 14 13 13 13 13 13 13 13 13 13 13 14 14 15 16 16 15 14 13 13 13 14
8 9 9 8 8 8 8 7 6 6 6 7 6 5 5 6 6 5 5 6 7 7 7 6 5 4 5 6 7 7 7 7 5 4 2 1 3 6 7 8 9 10 11 12 12 13 15 15 13 12 14 16 17 17 16 15 14 13 12 12 12 13 12 12 12 11 11 11 12 13 13 13 13 13 14 14 14 15 15 14 13 12 13 14 14
8 11 11 10 9 9 8 7 5 4 5 6 7 7 8 8 8 7 6 6 6 6 7 7 6 5 5 6 7 8 8 7 4 3 2 1 4 6 7 7 8 9 10 11 12 14 14 13 12 13 13 14 14 14 13 12 11 11 11 11 11 11 11 11 10 10 10 9 10 10 11 12 12 13 14 14 13 13 13 14 13 13 12 13 14
11 12 12 11 10 10 9 6 4 3 4 5 7 8 8 9 9 8 7 5 5 5 4 4 4 4 4 5 7 9 8 5 2 1 1 2 4 5 6 7 7 8 8 9 12 14 13 12 11 12 12 11 11 11 11 10 10 10 10 10 10 10 10 9 9 9 9 9 9 9 9 10 10 11 12 13 12 12 12 13 13 12 12 13 14
13 12 10 10 10 10 9 6 3 2 3 5 6 7 8 8 8 7 6 4 4 4 2 1 2 3 4 6 8 9 7 4 3 2 2 2 2 3 4 5 5 5 5 7 11 13 12 10 10 11 11 11 10 9 9 9 9 9 8 8 8 8 8 7 7 7 7 8 8 8 8 9 9 10 10 11 11 11 11 11 12 12 12 13 14
12 10 10 11 12 10 7 5 2 2 3 4 5 7 8 7 7 7 6 4 3 3 2 1 2 4 5 7 8 7 5 4 4 4 3 3 3 3 5 5 5 5 6 9 11 12 10 9 9 9 10 10 9 8 8 7 6 6 6 6 6 6 6 6 6 6 6 6 7 7 7 8 8 9 9 9 10 10 10 9 10 11 12 13 13
9 9 10 13 13 12 9 5 2 2 3 3 4 6 7 7 6 6 6 5 4 4 3 2 2 4 5 6 6 6 5 4 3 4 4 4 4 5 5 5 5 7 8 10 11 11 10 9 9 8 9 9 8 7 7 6 5 4 4 4 5 5 5 5 5 5 6 6 7 7 8 8 7 8 8 9 9 10 10 10 10 11 12 12 13
9 9 10 11 12 13 12 9 6 4 4 3 4 5 6 6 6 6 6 6 5 6 5 3 3 4 4 5 5 5 4 4 3 3 4 4 4 4 4 5 6 8 8 9 10 10 9 8 7 7 7 6 6 5 5 4 3 2 2 4 6 5 4 4 5 5 5 6 7 7 8 8 7 7 7 8 9 10 10 11 11 11 10 11 12
9 9 10 9 9 11 12 11 9 8 7 6 5 5 6 6 6 5 6 6 6 7 6 4 3 4 3 3 3 4 4 4 3 2 3 4 3 3 4 5 7 9 9 8 8 8 7 6 5 5 5 4 4 3 3 2 2 1 1 4 6 5 4 4 4 4 4 5 5 6 6 6 7 7 7 8 9 9 10 11 12 11 9 9 10
9 9 9 9 9 11 11 9 8 9 8 8 8 7 6 6 6 5 5 5 6 8 7 5 3 4 4 2 2 3 3 3 3 2 2 2 3 3 4 5 8 10 10 9 8 7 7 6 5 4 3 4 4 3 3 2 2 0 2 5 6 4 4 4 3 3 3 4 4 4 4 4 5 6 7 7 8 9 9 9 10 10 7 6 9
9 9 9 9 10 12 12 9 7 7 8 8 8 8 7 6 7 6 6 5 5 8 9 8 4 4 5 3 0 2 3 3 3 3 2 1 1 1 2 4 6 9 10 10 9 8 7 5 4 3 2 2 2 3 3 3 2 2 3 5 5 4 4 3 2 2 3 3 4 3 3 4 4 6 7 7 9 10 9 8 8 8 5 5 7
11 10 10 10 11 13 13 9 6 6 7 8 8 8 7 7 7 8 7 6 5 7 9 9 6 4 4 4 2 0 2 3 3 3 3 2 1 1 2 3 5 6 8 9 9 8 7 5 4 3 2 2 3 3 3 3 3 3 3 4 4 4 3 3 2 1 2 4 4 4 3 4 5 7 9 10 11 10 7 5 5 5 2 3 5
12 12 11 11 12 13 13 9 5 4 5 7 8 8 7 7 7 8 9 8 7 6 8 9 8 6 5 4 3 2 2 4 4 4 4 4 3 3 3 4 5 6 6 6 6 6 5 4 3 2 1 2 2 2 2 3 3 3 3 4 4 4 4 2 1 1 3 5 5 4 4 5 8 10 11 11 9 6 4 3 3 2 1 1 4
12 12 10 9 10 11 11 9 6 5 5 7 9 9 8 7 7 7 9 10 9 7 7 8 9 8 7 5 5 4 4 4 5 7 7 7 6 5 4 4 6 6 6 5 5 4 4 3 3 1 1 2 1 2 3 4 4 4 4 4 4 4 3 2 1 1 3 5 5 4 5 7 10 10 10 9 7 4 2 2 2 1 2 1 3
Wind_Direction
354 350 347 339 324 307 292 273 261 254 245 240 240 240 242 243 242 241 239 234 226 219 229 236 241 244 246 247 249 251 251 247 243 240 237 234 230 226 225 224 224 224 224 226 227 226 226 226 224 221 219 217 213 213 214 212 210 207 205 204 204 208 208 198 184 171 197 209 217 219 219 217 218 222 224 224 221 219 216 212 211 212 211 209 210
356 354 352 345 331 312 293 278 274 268 253 239 238 239 241 243 240 235 231 229 222 216 224 236 246 251 252 251 251 250 247 244 242 239 236 234 229 223 221 223 224 224 223 224 224 225 226 227 227 224 221 218 216 215 213 210 208 207 206 207 209 210 210 206 197 181 188 204 211 216 218 217 218 219 221 223 221 220 219 216 215 217 216 215 217
357 357 354 349 340 318 294 279 274 266 252 240 239 241 240 240 237 231 227 225 220 214 217 227 241 252 256 254 251 247 244 242 239 235 233 231 225 220 220 222 224 222 218 220 223 224 224 226 229 226 220 218 218 215 213 210 209 210 211 212 213 213 213 214 212 204 195 199 208 213 215 217 219 220 222 224 223 224 224 222 222 223 223 222 223
359 359 356 353 349 333 308 287 268 254 248 242 239 240 241 239 236 232 230 228 223 217 217 220 228 243 251 250 247 245 243 240 235 231 230 229 225 222 222 221 222 220 216 218 222 223 222 223 227 224 214 213 217 214 210 209 210 212 214 214 214 216 217 219 223 222 211 204 210 214 216 218 221 223 224 224 224 226 226 227 228 229 230 230 230
360 1 358 354 352 345 329 306 277 250 244 245 240 234 237 240 239 235 233 231 225 220 220 220 218 229 242 244 243 244 243 239 235 231 229 229 227 227 227 223 222 222 220 220 221 222 223 223 222 220 212 210 212 212 208 208 209 211 214 214 215 218 221 223 226 226 221 218 215 214 216 219 221 224 226 226 225 225 226 229 231 233 235 236 237
1 0 358 354 352 350 345 328 303 278 260 255 249 239 236 241 242 239 234 231 227 224 223 219 214 220 235 241 241 242 241 240 240 236 232 230 229 230 231 228 225 225 225 224 223 224 226 225 221 217 215 213 212 211 209 209 208 210 213 214 216 218 221 223 224 223 225 225 221 219 220 220 220 223 226 226 226 227 228 230 233 235 238 240 242
1 0 359 358 355 352 350 341 316 294 282 270 259 251 244 243 245 243 235 229 229 228 225 222 216 220 234 240 242 243 241 241 242 239 234 232 231 232 231 229 228 228 228 227 226 227 228 228 223 217 216 218 218 216 214 211 210 211 214 215 217 218 218 219 220 220 221 222 222 224 224 220 219 222 225 226 227 230 231 233 236 237 238 242 245
1 0 360 1 359 353 349 344 329 303 288 278 268 261 254 247 246 243 235 228 229 231 229 222 216 219 234 241 244 246 243 242 242 239 237 234 233 234 233 233 232 230 230 229 228 229 230 230 225 221 220 222 224 224 220 216 214 213 213 215 218 219 217 217 219 220 220 220 223 224 221 215 213 216 220 219 221 227 229 231 236 239 239 243 248
2 1 1 0 359 356 352 346 336 314 290 279 274 267 258 249 242 238 233 229 230 232 229 221 215 220 232 238 243 247 246 244 242 240 240 240 238 238 238 238 238 235 233 232 230 230 231 229 226 224 225 227 229 229 227 224 221 218 215 215 218 219 216 216 219 219 218 218 218 217 211 207 207 207 210 214 219 226 228 228 234 240 243 246 250
6 4 2 359 359 0 360 354 345 330 306 286 275 267 259 251 243 237 234 232 233 233 228 222 218 223 230 234 239 244 245 244 243 243 244 245 245 244 243 241 238 237 235 231 228 227 226 226 227 226 226 228 228 228 227 228 229 227 224 222 221 219 216 218 221 220 218 217 215 209 202 205 209 209 213 219 222 226 228 228 232 239 244 250 256
12 9 5 4 4 5 6 3 356 343 328 304 281 268 260 253 246 241 237 233 231 229 226 223 220 222 226 229 234 239 243 244 244 245 246 246 246 245 244 240 234 231 229 226 222 220 219 220 222 223 223 224 225 224 225 230 232 230 228 227 225 220 217 218 220 219 218 219 217 212 209 212 215 215 216 220 223 225 229 230 233 238 241 249 260
15 13 11 9 9 9 8 8 4 353 340 327 305 280 266 257 249 241 234 228 224 224 225 225 221 219 221 224 229 234 239 241 243 245 246 245 245 243 240 237 232 226 223 222 219 216 212 211 211 215 219 221 222 222 221 226 229 227 226 224 220 217 217 219 221 221 220 221 219 216 217 219 218 217 218 220 222 226 230 234 238 243 243 247 256
17 16 14 13 12 12 10 10 9 2 348 335 323 303 277 262 252 242 233 224 219 220 223 224 220 216 217 221 226 229 233 236 238 241 244 244 242 239 234 231 228 223 219 216 213 209 205 204 204 204 207 211 215 216 214 213 214 215 216 215 213 213 216 219 224 227 227 228 224 216 214 218 217 217 220 223 226 229 232 238 241 244 247 251 258
18 17 16 15 14 15 14 12 10 9 1 348 340 332 305 271 255 246 235 223 214 212 214 215 214 212 214 218 220 221 225 229 231 233 237 239 237 230 226 225 220 215 212 208 206 204 202 203 201 195 194 196 197 195 190 182 175 171 171 175 181 191 202 211 220 223 223 224 221 209 202 205 203 198 198 203 210 215 220 226 228 232 238 244 256
19 18 17 16 16 17 17 15 12 13 15 11 10 12 2 313 261 245 230 215 206 202 201 203 205 204 203 205 207 208 213 219 221 220 219 221 223 218 214 212 206 201 199 199 199 199 197 197 197 193 188 184 183 182 177 167 156 144 134 127 126 132 136 141 159 174 177 179 181 172 160 155 154 152 151 154 162 170 182 191 194 203 211 221 247
18 18 18 17 17 18 19 19 17 18 22 27 32 39 43 41 45 93 160 177 185 186 187 188 189 185 181 183 186 190 199 207 208 205 202 200 203 202 197 192 188 185 184 186 188 188 187 188 190 188 181 176 176 177 174 165 151 138 126 116 109 106 103 102 108 117 125 131 134 135 132 132 137 141 143 150 154 155 169 179 182 208 235 263 281
17 17 18 17 18 20 22 23 22 23 26 32 38 43 47 47 51 69 93 102 114 135 154 164 166 162 159 161 165 168 174 188 194 192 190 188 187 185 180 174 172 172 171 173 176 176 176 180 184 182 176 173 173 172 170 164 153 142 135 128 119 107 100 100 104 107 111 114 116 116 118 119 123 125 129 141 149 152 168 170 161 285 297 307 284
18 18 18 19 21 23 25 27 27 28 29 33 40 46 52 56 59 66 73 75 77 84 101 128 141 141 137 134 137 142 143 152 173 180 180 183 183 178 172 165 160 159 159 160 164 166 167 173 179 179 174 170 169 168 169 169 162 153 145 138 130 122 117 117 116 112 109 107 105 107 108 106 103 97 92 92 98 102 111 106 100 96 86 85 47
20 20 20 23 26 29 30 30 32 33 33 34 40 49 59 66 70 73 73 68 65 65 68 89 113 120 116 110 108 112 116 122 148 170 173 178 180 174 168 160 151 148 147 147 147 150 154 158 165 169 168 165 165 164 168 173 168 158 152 143 131 125 126 128 128 125 121 118 115 113 107 102 99 97 93 87 81 83 91 93 90 85 79 72 46
20 21 23 26 31 34 35 35 35 37 39 40 43 51 61 71 77 78 77 73 69 65 56 52 79 100 103 99 93 92 95 101 114 145 162 169 174 170 164 156 147 143 141 139 137 137 139 143 147 152 155 156 157 158 162 170 165 156 156 150 136 131 133 134 132 129 124 119 116 113 108 105 104 101 96 89 80 75 72 67 59 52 52 51 36
19 21 23 28 33 37 40 41 41 41 45 49 51 53 57 66 74 77 78 76 72 68 61 46 48 76 88 88 83 79 82 89 97 110 132 147 159 162 158 151 147 142 138 135 133 130 129 131 134 140 147 150 154 157 158 159 157 152 149 141 133 133 134 130 128 127 123 118 116 113 109 106 101 94 85 76 70 60 49 38 29 20 13 2 342
22 22 24 29 34 38 42 45 47 47 49 53 56 57 56 57 63 69 75 79 75 68 65 56 43 59 74 77 75 73 73 78 85 92 103 115 131 144 143 140 142 142 135 128 125 123 122 121 121 127 136 139 141 146 148 148 145 137 129 124 124 128 128 125 124 123 119 116 114 108 100 93 85 78 68 59 50 37 23 15 7 359 349 338 327
26 26 27 30 34 39 42 45 50 54 57 58 58 58 57 55 56 58 63 73 77 74 70 63 49 56 66 68 67 68 68 69 75 81 87 93 99 110 118 122 129 132 125 117 115 115 114 113 112 115 122 122 120 120 123 126 125 120 116 117 120 123 124 122 121 117 112 107 102 93 83 74 66 58 49 40 32 26 19 13 9 6 357 347 342
28 31 31 30 33 39 42 45 50 57 62 63 59 56 55 54 55 55 54 59 66 69 69 66 57 58 66 66 64 63 62 63 68 72 77 82 85 89 96 104 112 116 112 108 108 110 109 109 110 111 112 111 111 110 109 110 112 114 115 117 119 119 118 114 111 107 100 92 84 77 71 62 56 51 45 39 36 38 40 35 30 25 19 17 18
30 35 34 31 32 37 41 45 49 53 57 58 55 53 53 52 52 52 52 54 57 57 59 61 58 58 65 68 66 63 60 60 62 66 71 76 80 82 86 94 103 108 108 107 108 109 109 111 113 113 112 112 112 111 109 109 111 112 114 114 113 109 106 102 98 94 88 82 78 76 73 68 63 60 56 52 52 54 53 48 40 36 37 43 50
33 37 34 32 31 33 36 40 44 47 49 50 50 50 52 54 54 52 50 50 51 52 53 54 54 54 58 62 66 68 66 64 64 67 72 79 85 88 92 97 102 105 108 110 112 113 114 114 114 114 114 114 113 111 110 111 111 110 107 106 102 96 90 87 84 81 81 81 81 80 79 78 76 74 66 58 54 50 46 43 38 38 41 48 60
35 36 32 31 31 31 33 34 36 39 42 44 48 50 51 54 56 55 53 49 47 47 48 49 50 51 51 53 58 64 67 67 67 69 77 86 93 98 103 107 108 109 111 112 114 116 116 115 114 112 112 111 110 109 108 106 104 99 94 89 84 80 76 73 73 76 80 83 84 84 85 86 83 77 66 58 54 52 47 44 42 41 40 41 50
34 37 32 28 28 29 30 32 35 37 39 41 44 44 42 43 46 49 52 52 49 47 47 48 50 52 52 52 53 58 63 66 66 70 80 91 96 100 106 112 113 114 115 116 117 116 115 114 113 112 110 108 104 100 96 91 87 84 80 76 74 74 75 75 78 82 85 87 88 88 88 85 79 72 66 61 58 55 52 50 51 49 47 49 52
30 35 34 30 27 26 27 30 35 40 44 47 48 46 41 39 40 44 47 50 52 51 51 53 55 54 56 55 53 57 62 65 66 72 81 89 93 98 106 112 114 113 113 115 115 114 112 112 112 111 108 102 94 87 82 79 77 77 77 78 80 82 85 86 86 87 89 89 89 86 83 81 77 73 69 65 62 59 58 58 59 57 54 56 56
22 27 30 29 27 25 23 26 32 39 47 55 59 59 55 48 45 45 46 47 48 45 44 48 50 50 55 59 57 60 66 69 72 80 87 90 93 98 103 107 108 107 106 108 109 108 107 107 105 104 101 95 89 84 80 77 78 80 83 86 88 90 90 89 88 90 90 89 87 85 82 80 78 75 73 70 67 64 62 61 61 58 56 55 54
16 18 21 23 24 23 19 19 23 31 44 59 68 70 70 66 60 57 53 50 47 43 39 39 37 34 39 49 56 63 73 78 78 82 91 99 103 105 106 108 110 109 109 113 116 113 107 101 96 93 91 88 87 85 83 83 87 93 95 95 93 92 92 91 91 91 91 89 88 86 82 81 79 77 74 72 69 66 63 61 60 58 56 52 48
12 14 16 19 22 22 19 15 15 17 28 52 74 81 81 80 78 74 68 61 56 53 51 49 45 39 34 35 46 61 74 81 80 77 85 105 124 130 128 131 136 138 138 131 121 114 106 99 96 92 89 88 88 89 91 98 104 108 107 104 100 96 95 94 94 94 92 90 88 85 83 81 80 78 75 72 69 67 63 59 56 54 51 48 42
9 11 14 18 20 22 19 16 13 8 7 36 73 88 88 88 88 85 81 74 66 60 56 52 48 45 41 39 43 128 163 155 140 116 125 164 182 186 186 183 178 175 173 152 129 118 112 108 106 105 103 101 100 101 105 112 116 116 113 108 104 100 97 96 96 94 91 88 86 83 82 80 79 77 75 72 69 65 60 54 48 44 41 38 33
12 13 15 18 21 23 21 17 15 11 2 17 80 96 93 92 94 92 87 79 70 63 56 50 45 42 41 41 39 37 202 203 201 195 193 196 198 198 191 180 170 166 164 152 137 128 123 119 117 116 115 113 114 117 120 122 123 119 114 109 104 101 100 98 96 92 89 87 85 82 79 78 76 75 72 69 65 60 54 48 44 40 36 31 26
16 17 18 19 22 25 23 19 17 16 12 6 89 111 103 101 101 95 83 67 59 60 59 53 45 41 42 42 39 36 45 174 178 171 172 174 174 176 172 162 151 147 142 136 132 129 126 123 121 121 119 120 124 128 128 127 124 119 113 109 106 103 101 98 95 91 89 87 84 80 77 75 72 70 67 63 58 52 47 43 41 39 37 33 27
16 18 19 19 22 25 23 17 16 17 16 7 311 168 128 124 125 106 66 27 22 36 52 57 52 46 47 49 48 47 57 93 130 143 150 154 158 165 164 152 141 137 134 131 129 127 125 123 122 120 120 125 130 131 129 126 121 116 112 109 106 104 100 96 93 90 87 84 81 78 76 72 68 65 61 55 51 46 42 42 43 41 36 33 28
10 10 13 17 21 20 15 11 11 12 13 9 331 264 235 200 207 292 357 7 10 15 26 43 49 45 48 54 55 54 60 76 108 133 143 149 160 172 169 154 142 136 134 134 132 130 127 125 122 119 121 129 131 129 127 123 118 114 111 108 105 102 99 95 92 89 86 84 81 78 73 69 66 63 58 54 50 46 43 45 46 42 35 30 25
0 359 1 7 10 8 1 0 3 4 7 9 348 293 272 264 265 293 338 356 0 3 8 10 11 28 45 52 49 41 36 37 52 100 128 148 167 170 161 149 142 138 137 136 136 134 131 128 124 121 126 129 128 124 122 118 114 112 110 108 106 104 101 97 94 91 87 84 81 78 73 69 68 65 59 55 51 48 46 44 42 36 30 25 22
350 352 352 353 356 355 350 352 354 352 358 5 360 331 307 294 284 288 317 338 344 351 355 350 346 4 26 30 25 17 8 2 2 8 12 71 144 149 146 140 135 134 136 138 139 136 132 129 127 126 127 127 125 121 118 115 112 112 111 111 112 109 104 99 95 91 87 83 81 79 74 68 65 62 59 56 53 49 47 42 36 29 23 19 18
349 350 349 348 350 349 346 348 349 346 352 1 2 355 342 325 307 297 304 322 334 342 349 352 355 360 0 359 360 356 348 345 351 1 9 92 131 137 135 132 129 130 134 140 142 138 134 133 134 135 134 130 126 123 119 115 113 113 112 112 114 111 105 101 95 90 86 84 81 79 73 66 61 56 56 57 55 51 47 41 34 30 24 18 19
346 341 339 342 345 343 339 335 335 350 359 358 1 2 358 348 335 316 303 310 333 344 355 15 24 10 354 351 350 344 337 337 354 24 63 104 122 129 130 130 129 127 131 143 145 141 136 137 141 144 144 140 134 128 122 117 114 113 109 108 109 108 104 101 97 90 85 83 81 79 73 66 59 53 53 55 53 48 44 39 32 30 27 21 20
349 344 344 345 342 337 331 323 325 6 9 358 1 4 358 352 349 334 311 307 330 339 340 25 30 4 349 346 344 339 342 11 44 46 61 91 110 129 136 134 125 122 141 158 151 142 140 144 147 149 150 148 144 136 128 122 116 112 109 107 107 106 103 99 99 96 88 83 81 76 68 60 54 47 46 47 45 41 37 33 29 28 28 23 19
5 8 7 358 349 342 335 323 332 27 18 358 359 358 348 346 352 344 318 296 286 281 273 303 348 349 345 345 346 350 6 37 43 35 45 77 107 125 127 121 116 127 149 152 144 140 144 149 149 150 152 153 150 145 137 131 120 111 112 117 120 117 109 101 102 104 99 89 80 69 58 51 48 44 42 42 40 38 33 27 25 27 27 22 16
6 6 2 0 2 6 5 357 2 24 11 350 345 339 333 338 353 348 327 303 279 260 249 263 321 336 341 348 358 12 28 40 41 36 41 62 100 120 115 107 116 135 142 137 134 140 147 148 144 144 145 147 149 148 143 137 123 106 109 131 142 141 131 114 104 103 100 89 73 58 49 46 46 46 44 42 41 40 36 28 22 22 24 21 14
355 355 356 2 10 14 13 9 3 350 329 316 320 320 319 329 344 347 336 318 289 264 252 262 296 313 330 350 3 12 26 39 43 37 36 50 87 122 123 119 129 141 144 139 138 145 150 153 157 159 154 149 149 147 141 138 128 101 111 153 157 154 146 128 108 95 88 75 59 50 48 47 47 47 42 36 34 34 30 25 20 18 22 24 19
346 350 355 1 6 5 1 356 348 333 311 295 295 301 306 314 325 334 334 316 291 274 268 271 285 294 304 341 356 349 356 16 22 20 25 39 66 105 125 136 145 151 152 149 151 157 162 164 168 172 173 174 177 174 169 166 155 88 125 156 158 154 145 131 108 80 66 57 48 46 48 45 44 40 30 21 18 15 12 13 14 16 23 31 28
341 343 345 348 352 351 346 337 329 323 313 293 280 280 289 297 302 313 320 310 294 285 277 265 270 291 285 282 349 350 344 354 3 10 28 42 60 87 113 139 156 165 169 169 169 174 176 173 169 166 167 172 179 184 192 201 215 224 143 151 154 147 131 123 104 70 54 46 42 43 37 28 24 21 12 5 2 357 353 357 5 11 22 38 33
338 339 336 333 337 340 337 325 308 309 315 304 281 268 272 284 290 292 298 298 295 288 277 265 268 294 283 257 297 7 344 334 342 347 355 14 54 94 120 141 158 173 185 191 193 194 192 189 191 195 192 193 204 217 227 233 232 206 161 150 146 138 125 116 103 74 51 34 24 16 4 357 357 356 351 344 341 339 336 342 356 6 24 47 34
333 334 333 331 332 333 332 324 300 292 310 316 297 271 262 272 283 284 283 283 289 290 279 268 262 277 274 247 211 353 323 312 318 324 324 323 310 214 190 174 164 168 182 195 201 205 207 207 207 208 225 255 256 250 244 231 202 178 162 151 145 144 145 136 114 70 33 18 12 7 358 351 347 342 337 331 328 326 321 324 346 0 36 64 36
326 328 329 330 331 331 331 328 313 298 311 321 312 289 266 261 276 287 286 280 281 290 285 274 265 263 260 239 207 205 281 293 294 295 298 297 292 269 228 209 194 182 176 179 185 189 191 192 188 189 283 305 281 242 212 192 177 167 160 157 159 167 175 178 155 35 14 5 1 358 355 350 345 341 338 336 335 330 313 314 343 350 171 110 38
318 321 323 326 335 340 339 334 326 323 327 325 319 308 288 270 275 293 294 283 277 281 288 284 273 260 247 237 234 242 260 288 300 301 296 287 279 272 254 227 213 206 199 193 184 178 179 184 192 214 316 332 294 179 168 162 160 156 154 158 167 177 185 192 225 327 350 349 342 338 346 350 348 346 346 348 349 345 325 332 358 358 188 135 53
Height
790 788 787 786 786 785 784 784 784 784 784 786 788 787 786 786 787 790 792 794 793 792 795 798 801 803 804 805 805 806 807 808 809 810 811 813 814 814 815 816 817 818 819 821 822 824 825 826 828 829 831 832 834 835 837 838 840 841 843 844 845 847 848 849 851 852 853 855 857 859 860 862 863 864 865 866 867 868 869 870 871 872 873 874 875
790 788 786 785 784 783 782 782 782 782 783 783 785 785 785 786 787 789 790 791 790 789 792 796 798 801 802 803 803 804 805 806 808 809 810 811 812 813 813 814 815 816 818 819 821 822 823 825 826 828 829 831 833 834 836 837 838 840 841 843 844 845 847 848 850 851 852 854 855 857 859 860 861 862 864 865 866 867 868 869 870 871 872 873 874
790 787 785 783 782 781 780 780 780 780 781 781 781 783 785 785 786 787 788 788 787 787 789 793 796 798 800 801 802 803 804 805 806 808 809 810 811 811 812 813 814 815 816 818 819 821 822 823 825 827 829 831 832 833 835 836 837 839 840 842 843 844 846 847 849 850 851 852 854 855 857 858 859 861 862 863 865 866 867 868 869 870 871 871 872
790 787 784 782 781 779 778 779 779 779 780 779 779 782 785 786 786 786 786 786 786 786 788 790 793 795 798 800 802 802 803 804 805 806 807 808 809 810 811 812 813 814 815 817 818 819 821 822 823 826 828 830 831 832 833 835 836 837 839 841 842 843 845 846 847 848 850 851 852 853 855 856 858 859 861 862 863 865 866 867 868 869 869 870 871
790 787 784 781 780 778 777 777 777 777 778 778 777 779 783 784 785 784 784 784 784 784 785 788 790 793 796 799 800 801 802 803 804 805 806 807 808 809 809 810 811 813 814 816 817 818 819 820 822 824 827 828 829 830 831 833 834 836 837 839 840 842 843 845 846 847 848 849 850 852 853 855 857 858 859 861 862 863 864 865 866 867 868 868 869
791 788 785 782 780 778 777 776 775 775 775 776 777 778 780 781 783 783 782 782 782 783 783 785 787 790 794 796 799 800 801 802 803 804 805 805 806 807 808 809 810 812 813 814 816 817 818 819 821 823 825 826 827 828 830 831 833 834 836 837 839 840 841 843 845 846 847 848 849 850 852 853 855 856 857 859 860 861 862 863 864 865 866 866 867
792 789 787 784 781 779 778 776 775 774 774 774 775 777 778 779 780 781 782 781 781 781 781 783 785 788 792 795 797 798 799 801 802 803 804 804 805 806 807 808 809 811 812 813 815 816 817 818 820 821 823 824 826 827 828 830 831 833 834 835 837 838 839 841 843 844 845 847 848 849 850 852 853 855 856 857 859 860 861 862 862 862 863 863 864
794 791 788 785 782 780 778 777 775 774 774 773 774 775 776 778 779 780 781 780 780 780 780 781 784 787 790 793 795 797 798 799 801 802 803 804 804 805 806 807 808 810 811 813 814 815 816 817 819 820 822 823 825 826 828 829 830 831 832 834 835 836 837 839 841 842 843 845 846 847 848 850 851 853 855 856 857 857 858 859 859 859 860 861 862
797 794 790 787 784 782 780 777 775 774 774 773 774 774 775 777 778 780 780 780 780 780 779 780 782 785 788 791 793 795 796 798 799 801 802 803 804 804 805 806 808 809 810 811 813 814 815 816 818 819 821 822 824 825 826 827 828 829 830 832 833 834 836 838 839 840 841 843 844 845 847 848 849 850 852 852 852 853 855 856 857 857 858 859 860
800 797 793 790 787 784 781 779 777 775 774 774 775 774 775 776 777 779 779 779 779 779 779 780 782 784 787 790 792 793 795 796 798 800 802 803 803 804 805 806 807 808 809 811 812 813 814 815 817 818 819 821 822 823 824 826 827 828 829 830 831 833 834 836 837 837 839 840 841 843 844 844 845 846 847 848 849 851 853 854 854 855 857 858 858
802 800 797 793 790 786 783 780 778 777 776 776 776 775 775 776 777 778 778 778 778 779 779 780 781 783 786 788 790 792 793 795 797 799 801 802 803 803 804 805 806 808 809 810 811 812 813 814 815 817 818 819 820 821 823 824 825 826 828 829 830 831 832 833 834 835 836 838 838 840 840 841 842 843 845 846 848 850 851 852 853 855 856 857 856
805 802 800 796 793 789 786 782 780 779 777 776 776 776 776 776 777 777 777 777 777 778 780 781 781 782 785 787 789 790 792 793 795 798 799 801 802 803 803 804 805 807 808 810 811 811 812 813 814 815 817 818 819 820 821 823 824 825 826 827 828 829 829 831 832 833 834 835 836 836 837 838 840 841 843 845 846 848 850 851 853 854 855 855 855
807 805 802 799 796 792 789 785 782 780 778 777 776 775 776 776 777 777 777 777 776 777 779 781 782 782 783 785 787 788 790 792 794 796 798 799 800 801 802 803 804 806 807 809 810 811 812 812 813 814 816 817 818 819 820 821 822 823 824 825 826 827 827 829 830 831 832 832 833 834 836 837 839 840 842 843 845 847 849 850 851 852 853 853 853
808 806 804 801 798 795 792 789 786 783 780 778 777 776 776 776 777 777 777 776 776 777 778 780 782 782 782 784 786 787 788 790 792 795 797 798 799 800 801 802 803 805 806 808 809 810 811 812 813 813 814 816 817 818 819 819 821 822 823 824 825 826 826 826 828 829 830 830 832 833 835 837 838 839 841 842 844 845 847 848 849 850 851 851 852
810 808 805 803 800 797 794 792 789 786 783 781 779 777 777 777 777 777 778 778 777 777 777 779 781 782 782 783 785 786 787 789 791 793 795 796 798 798 799 801 802 803 805 807 808 809 811 812 812 813 814 815 816 817 818 818 819 821 822 824 825 825 825 826 827 827 828 830 831 833 835 836 837 838 840 842 843 845 846 847 848 848 849 850 851
812 810 807 805 803 799 797 794 792 790 787 784 782 780 779 779 778 779 779 779 780 779 778 779 781 782 782 783 785 786 787 789 791 792 794 795 796 798 798 800 801 802 804 806 807 809 810 811 812 813 814 815 816 817 817 818 819 820 823 825 827 827 827 828 828 828 829 830 832 834 835 836 837 838 840 841 842 844 845 846 847 847 848 849 850
815 813 810 808 806 803 800 797 795 793 791 788 786 784 783 782 781 781 782 782 783 782 781 780 780 782 783 783 785 786 786 788 790 792 793 795 796 797 798 799 800 802 803 805 806 808 809 810 811 812 814 815 816 817 818 819 820 821 822 825 828 828 829 831 831 830 831 832 833 835 836 837 838 838 839 840 841 843 844 845 846 847 848 849 850
819 816 814 811 809 806 804 801 799 797 795 794 792 790 788 786 786 785 785 785 786 786 786 783 781 782 783 784 785 786 787 788 790 791 793 794 795 797 798 798 800 801 803 804 806 807 809 810 811 812 813 815 816 818 819 820 820 821 822 824 826 828 829 831 832 832 833 834 835 836 837 838 839 840 841 841 842 843 844 845 847 848 848 849 850
823 820 817 815 812 810 807 805 802 800 799 799 797 795 793 791 790 789 789 789 789 790 791 789 784 782 783 785 786 787 788 789 790 792 793 794 795 796 797 798 800 802 803 804 806 807 809 810 812 813 814 815 817 818 820 821 821 822 823 823 825 827 829 830 831 832 832 834 835 836 837 839 840 841 843 843 843 844 845 846 847 848 848 849 849
827 824 821 818 815 813 810 808 806 805 803 803 802 801 799 796 794 793 792 793 793 793 795 796 791 784 782 786 788 789 790 791 791 792 793 794 795 796 797 799 800 802 804 805 806 808 809 811 812 814 815 816 817 819 820 822 822 823 823 823 824 826 829 830 831 831 832 833 835 836 838 839 841 842 843 843 843 844 845 846 847 847 848 848 849
830 827 824 821 819 816 813 812 810 809 808 806 805 804 803 802 799 797 796 795 796 797 798 801 800 789 782 785 790 792 793 793 792 793 793 795 796 797 797 799 800 801 803 805 807 809 810 812 814 815 816 817 818 819 820 822 823 823 824 824 825 827 829 830 831 832 833 834 835 837 838 840 841 842 842 843 843 844 845 846 847 847 847 848 848
832 830 827 825 822 820 817 816 814 813 812 810 809 808 808 807 804 802 801 799 799 800 800 804 806 796 786 787 792 795 797 798 796 795 795 796 798 799 799 800 802 802 803 805 807 809 811 813 815 817 818 818 819 820 821 822 823 824 825 826 827 829 830 831 832 833 834 835 836 837 839 840 840 841 842 843 844 844 845 846 846 846 846 846 846
834 832 830 828 826 824 822 820 818 817 816 814 813 812 812 811 809 808 807 804 803 804 803 806 810 802 791 791 796 798 800 802 801 799 798 798 800 802 803 804 805 805 805 807 809 811 813 815 817 819 820 820 821 822 823 823 823 824 826 828 829 831 831 832 833 834 835 836 837 838 839 840 840 841 842 843 844 844 845 845 845 845 845 845 844
835 834 832 830 829 827 825 823 822 821 819 818 817 816 816 815 814 812 812 810 808 808 807 809 811 805 797 797 801 803 804 805 804 803 802 802 803 805 806 807 808 808 808 810 812 814 816 818 820 822 823 823 823 824 826 827 827 827 828 830 831 833 833 834 835 835 836 837 837 838 839 840 841 841 842 843 844 844 844 844 844 844 844 844 843
836 835 833 832 831 830 829 827 825 824 823 821 821 820 819 819 818 816 816 814 813 813 812 812 812 808 803 802 805 807 808 809 807 807 807 806 807 808 810 811 811 811 811 813 815 817 818 820 822 824 825 826 827 827 829 830 831 831 831 831 833 834 834 835 835 836 836 837 838 839 840 840 841 842 842 844 844 844 844 844 844 844 844 844 843
837 836 835 834 833 832 831 829 828 827 826 825 824 823 822 821 820 819 819 818 817 817 815 814 813 811 808 808 809 811 812 812 812 812 812 811 810 811 813 814 814 814 815 816 818 819 820 822 824 826 827 829 830 830 831 832 833 833 833 833 833 834 835 835 835 836 836 838 838 839 840 841 841 842 843 843 843 844 844 843 843 844 844 844 844
839 838 837 836 835 834 833 831 830 829 828 827 826 825 824 824 822 821 821 821 820 819 818 817 815 814 814 814 814 814 815 815 816 816 816 815 814 815 816 817 818 818 818 820 822 823 823 824 826 829 830 832 833 833 833 833 834 834 834 834 834 834 834 835 835 835 836 837 838 839 840 841 841 842 842 842 843 843 844 844 843 844 844 844 844
841 840 839 838 837 836 835 833 832 831 830 829 828 827 827 826 825 824 823 822 822 822 821 820 819 819 819 818 818 818 818 819 819 819 820 819 818 818 819 820 821 821 822 823 826 827 827 827 828 831 833 835 836 835 834 834 834 834 834 834 834 835 835 835 836 836 837 838 839 840 841 841 841 842 842 843 843 844 845 845 845 845 845 844 843
844 842 841 840 839 838 837 836 835 833 832 831 830 829 829 828 827 826 825 825 824 824 824 823 823 823 823 822 822 822 822 822 823 823 823 822 822 822 822 823 824 825 826 827 829 830 831 830 831 833 834 834 834 834 833 834 835 835 836 836 836 836 836 837 837 838 839 840 840 841 841 841 842 843 843 844 844 845 846 846 846 846 845 844 843
846 845 843 842 841 839 838 837 837 836 835 833 832 831 831 830 829 828 828 827 827 826 826 825 825 825 825 825 825 825 825 825 825 825 825 825 825 825 825 826 827 828 829 831 832 833 832 831 831 832 832 831 832 832 833 835 836 838 838 838 838 838 838 838 839 840 841 841 841 842 842 843 843 844 845 846 846 847 847 847 846 846 845 845 844
848 847 845 844 842 841 840 839 838 838 837 836 835 833 832 832 831 831 830 829 829 828 828 827 827 827 827 827 827 827 827 827 827 827 827 827 827 827 828 829 830 831 832 833 834 834 832 830 830 831 831 831 832 833 835 837 838 840 840 840 840 840 840 841 841 842 843 843 843 844 844 845 846 846 846 847 847 847 847 847 847 847 846 846 845
850 849 847 846 845 843 842 841 840 840 839 838 837 836 835 834 833 833 832 831 831 831 830 829 829 828 828 828 828 829 829 828 828 828 828 828 829 829 830 830 831 832 833 833 834 833 831 830 830 832 833 833 834 836 837 839 840 842 842 842 842 843 842 843 844 844 845 845 845 846 846 847 847 847 847 847 848 848 848 848 848 847 846 845 844
852 851 849 848 847 845 844 843 842 841 840 840 839 838 837 836 835 835 834 834 833 833 832 831 831 830 830 829 829 829 829 829 829 829 829 829 829 830 831 831 832 833 833 833 833 833 832 832 833 834 835 836 838 839 840 841 842 844 844 844 844 844 844 845 846 846 846 847 847 847 848 848 848 848 849 849 849 849 849 849 848 846 845 845 844
853 852 851 850 848 847 846 845 844 842 842 841 841 840 840 839 838 837 837 836 835 834 834 833 832 832 831 830 830 829 829 829 829 829 829 830 830 830 831 832 832 833 833 833 833 833 834 835 836 837 838 839 840 841 842 843 845 846 846 845 845 845 846 846 847 847 848 848 849 849 849 850 850 850 851 851 851 850 849 848 847 846 846 845 844
855 854 852 851 850 849 848 847 845 844 843 843 842 842 841 841 840 839 839 838 837 836 835 835 834 834 833 832 831 831 830 830 830 830 830 831 831 831 832 832 833 834 834 834 834 835 836 837 838 839 840 841 842 843 844 846 847 847 846 846 846 847 847 848 848 849 849 850 850 851 851 852 852 852 852 851 850 849 849 848 848 847 846 844 843
856 855 854 852 851 850 849 848 847 846 845 845 844 844 843 842 842 841 840 840 839 838 837 837 836 836 835 834 834 833 833 833 833 833 833 833 833 833 833 833 834 834 835 835 836 837 838 839 840 841 842 843 844 845 846 847 848 848 848 848 848 848 849 849 850 850 851 851 852 853 853 853 853 853 852 851 850 850 849 849 848 846 845 845 845
857 856 855 853 852 852 851 850 849 848 847 846 846 845 845 844 844 843 842 842 841 840 840 839 838 838 837 837 836 836 836 836 835 835 835 835 835 835 835 835 835 835 836 837 838 838 840 841 842 843 844 845 846 847 848 848 849 849 849 849 849 850 850 851 852 852 853 853 854 854 854 854 853 853 852 852 851 851 850 849 848 847 848 848 848
857 856 855 854 853 853 852 851 850 849 849 848 847 847 847 846 845 845 844 843 843 842 841 841 840 840 839 839 839 839 838 838 838 838 837 837 837 837 837 836 837 837 838 838 839 840 841 842 844 845 846 846 847 848 849 849 850 850 850 850 851 852 852 853 854 854 854 855 855 855 854 854 854 854 853 853 852 851 850 850 850 850 850 850 849
857 857 856 855 854 853 852 852 851 850 850 849 849 848 848 847 846 846 845 845 844 843 843 842 842 842 841 841 841 840 840 840 839 839 839 838 838 838 838 838 838 839 839 840 841 842 843 844 845 846 847 848 849 850 850 851 851 852 852 853 853 854 854 855 855 855 855 855 855 855 855 855 855 854 854 853 853 852 852 852 852 851 850 849 848
858 857 857 856 855 854 853 852 851 851 851 851 850 850 849 848 848 847 846 846 845 845 844 844 844 843 843 842 842 842 841 841 840 840 840 840 840 839 839 840 840 840 841 842 842 843 844 845 847 848 849 850 851 852 852 853 853 854 854 854 855 855 855 856 856 856 856 856 856 856 856 856 855 855 854 854 854 853 853 853 852 851 850 849 848
858 857 857 856 855 854 853 852 851 851 851 851 851 851 850 849 849 848 847 847 847 847 846 846 845 845 844 844 843 843 842 841 841 841 841 841 841 841 841 841 842 842 843 844 844 845 846 847 848 849 850 851 852 853 854 854 854 855 855 855 856 856 856 857 857 857 857 857 857 857 857 856 856 856 855 855 854 854 853 853 852 852 851 850 849
858 857 857 856 855 854 853 852 852 852 852 852 852 851 851 850 849 849 848 848 848 848 847 847 846 846 845 845 844 844 843 843 842 842 842 842 842 842 843 843 843 844 845 845 846 846 847 848 849 850 851 852 853 854 855 855 855 856 856 856 857 857 857 857 857 857 857 857 857 857 857 857 856 856 855 855 855 854 854 853 853 852 852 851 850
859 858 857 856 855 854 853 852 852 852 852 852 852 852 851 850 850 850 849 849 849 849 848 848 848 847 847 846 845 845 844 844 844 844 843 843 843 844 844 844 844 845 845 846 847 848 849 850 851 851 852 853 854 855 855 856 856 856 857 857 857 857 857 858 858 858 858 858 858 857 857 857 856 856 856 856 855 855 855 854 854 853 852 852 851
859 858 857 856 855 854 853 853 852 852 852 852 852 852 851 851 851 851 850 850 850 849 849 849 849 849 848 847 847 846 846 846 845 845 845 845 845 845 845 846 846 846 847 848 848 849 850 851 852 853 853 854 855 855 856 856 856 857 857 857 858 858 858 858 858 858 858 858 858 857 857 857 857 857 857 857 856 856 856 855 854 854 853 852 851
860 859 858 857 856 855 854 853 853 853 853 853 852 852 852 851 851 851 851 851 850 850 850 850 850 850 849 849 848 848 848 848 847 847 847 847 847 847 847 847 848 848 849 849 850 851 852 853 853 854 854 855 855 856 856 857 857 857 857 857 858 858 858 858 858 858 858 858 858 857 857 857 857 858 857 857 857 856 856 855 855 854 853 852 851
860 859 858 857 856 855 855 854 854 853 853 853 852 852 852 852 852 852 852 851 851 851 851 851 851 851 850 850 850 850 850 849 849 849 849 849 848 848 849 849 849 850 850 851 852 853 853 854 854 855 855 855 856 856 856 857 857 857 857 857 858 858 858 858 858 858 858 858 858 858 858 858 858 858 858 857 857 856 856 855 855 854 853 853 852
860 859 858 857 856 855 855 854 853 853 853 852 852 852 852 852 852 852 852 852 852 851 851 851 851 851 851 851 851 851 851 851 851 851 850 850 850 850 850 850 851 851 852 852 853 854 854 854 855 855 855 856 856 856 857 857 857 857 857 857 857 857 858 858 858 858 858 858 858 858 859 858 858 858 857 857 856 856 856 855 855 854 854 853 853
860 859 858 857 856 855 854 853 852 852 852 851 851 852 852 852 852 852 852 852 852 851 851 851 852 852 852 851 851 852 852 852 852 851 851 851 851 851 851 851 852 852 853 853 853 854 854 855 855 855 855 856 856 856 856 856 856 856 856 856 857 857 857 857 858 858 859 859 859 858 858 858 858 857 857 856 856 855 855 855 855 854 854 854 853
859 859 858 857 856 855 853 852 852 851 851 851 851 851 851 852 851 851 851 852 852 851 851 851 852 852 852 852 852 852 852 852 852 852 852 852 852 852 852 852 852 852 853 853 853 854 854 854 855 855 855 855 855 855 855 855 855 855 855 856 856 857 857 858 858 859 859 859 858 858 858 858 857 857 856 855 855 855 854 854 854 854 854 854 853
859 858 857 856 855 854 853 852 851 850 850 850 850 850 850 851 851 851 851 851 851 851 851 851 851 852 851 851 852 852 852 852 852 851 852 852 852 852 852 852 852 853 853 853 853 854 854 854 854 854 854 854 854 854 854 854 854 855 855 855 856 857 858 858 858 858 858 858 858 858 857 857 857 856 855 854 854 853 853 854 854 854 854 854 854
858 857 857 856 855 854 852 851 851 850 850 850 849 849 849 849 850 851 851 850 850 851 851 850 851 851 851 851 851 851 852 852 851 851 851 851 851 851 851 852 852 852 853 853 853 853 853 854 854 854 854 853 853 853 853 853 854 854 855 856 857 857 858 858 858 858 858 858 858 857 857 857 856 855 854 854 853 853 853 853 853 853 853 854 854